Location: Fort Wayne
(41.1310°N, 85.1290°W)
Time: 20:41:07
(UTC-05:00)

OPAL - Pass Details

Date: 29 August 2017
Orbit: 743 x 795 km, 100.2° (Epoch: 24 November)

Event Time Altitude Azimuth Distance (km) Brightness Sun altitude
Rises 21:04:44 0° 209° (SSW) 3,219 10.8 -9.3°
Reaches altitude 10° 21:08:03 10° 232° (SW) 2,288 10.4 -9.9°
Maximum altitude 21:10:52 15° 267° (W) 1,958 10.7 -10.4°
Drops below altitude 10° 21:13:41 10° 301° (WNW) 2,281 11.5 -10.9°
Sets 21:17:00 0° 325° (NW) 3,203 11.8 -11.5°
